EZS1279 LFSB-LGKR

Flight info

Callsign EZS1279
Flight time 1h 50m
Altitude 37000
Route ELBEG Y715 AMRUP N491 TRA DCT DEGES DCT GAMSA N871 MADEB N606 ELMEM DCT DIRAB DCT VESAL DCT BADOP DCT BABAG DCT PEVAL DCT NAKIT DCT VAKSU DCT RODON DCT LIMJA N732 PITAS
Aircraft A320/M-SDE2E3FGHIJ1RWXYZ/LB1

Departure

Time 2026-04-27 13:24
Airport EuroAirport Basel–Mulhouse–Freiburg (LFSB)

Arrival

Time 2026-04-27 15:14
Airport Corfu Ioannis Kapodistrias International Airport (LGKR)
Time Latitude Longitude Altitude Speed Heading
2026-04-27 13:23 47.74833 7.62171 10027 ft 289 kts 84°
2026-04-27 13:24 47.75037 7.65198 10498 ft 304 kts 84°
2026-04-27 13:24 47.75255 7.68433 10701 ft 326 kts 84°
2026-04-27 13:24 47.75466 7.71873 11133 ft 339 kts 89°
2026-04-27 13:24 47.75258 7.75395 11770 ft 345 kts 97°
2026-04-27 13:25 47.74945 7.78956 12426 ft 351 kts 97°
2026-04-27 13:25 47.74619 7.82572 13073 ft 356 kts 97°
2026-04-27 13:25 47.74284 7.86236 13763 ft 359 kts 97°
2026-04-27 13:25 47.73945 7.89925 14353 ft 363 kts 97°
2026-04-27 13:26 47.73604 7.93663 14927 ft 367 kts 97°
2026-04-27 13:26 47.73377 7.96159 15302 ft 370 kts 97°
2026-04-27 13:26 47.73033 7.99969 15859 ft 374 kts 97°
2026-04-27 13:26 47.72682 8.03819 16434 ft 378 kts 97°
2026-04-27 13:27 47.72323 8.07711 16990 ft 382 kts 97°
2026-04-27 13:27 47.71959 8.11639 17547 ft 386 kts 96°
2026-04-27 13:27 47.71591 8.15615 18096 ft 391 kts 96°
2026-04-27 13:27 47.71219 8.19637 18612 ft 395 kts 96°
2026-04-27 13:28 47.70844 8.23687 19086 ft 398 kts 96°
2026-04-27 13:28 47.70464 8.27776 19565 ft 401 kts 96°
2026-04-27 13:28 47.70078 8.31897 20047 ft 404 kts 96°
2026-04-27 13:28 47.69686 8.36041 20529 ft 407 kts 97°
2026-04-27 13:29 47.69279 8.40215 20991 ft 411 kts 99°
2026-04-27 13:29 47.68548 8.44331 21439 ft 415 kts 109°
2026-04-27 13:29 47.67366 8.48190 21887 ft 418 kts 118°
2026-04-27 13:29 47.65987 8.52003 22341 ft 421 kts 118°
2026-04-27 13:30 47.64602 8.55846 22785 ft 424 kts 118°
2026-04-27 13:30 47.63211 8.59720 23217 ft 427 kts 118°
2026-04-27 13:30 47.61810 8.63621 23632 ft 430 kts 118°
2026-04-27 13:30 47.60398 8.67545 23999 ft 433 kts 118°
2026-04-27 13:31 47.58975 8.71497 24360 ft 436 kts 118°
2026-04-27 13:31 47.57544 8.75462 24721 ft 438 kts 118°
2026-04-27 13:31 47.56104 8.79444 25079 ft 440 kts 118°
2026-04-27 13:31 47.54655 8.83449 25443 ft 442 kts 118°
2026-04-27 13:32 47.53202 8.87463 25805 ft 444 kts 118°
2026-04-27 13:32 47.51738 8.91497 26148 ft 446 kts 118°
2026-04-27 13:32 47.50265 8.95541 26479 ft 448 kts 118°
2026-04-27 13:32 47.48782 8.99605 26810 ft 450 kts 118°
2026-04-27 13:33 47.47325 9.03717 27137 ft 452 kts 116°
2026-04-27 13:33 47.45951 9.07906 27473 ft 454 kts 115°
2026-04-27 13:33 47.44633 9.12165 27788 ft 456 kts 114°
2026-04-27 13:33 47.43336 9.16457 28103 ft 459 kts 114°
2026-04-27 13:34 47.42033 9.20764 28449 ft 460 kts 114°
2026-04-27 13:34 47.40710 9.25068 28797 ft 461 kts 114°
2026-04-27 13:34 47.39363 9.29377 29131 ft 463 kts 115°
2026-04-27 13:34 47.37996 9.33692 29422 ft 465 kts 115°
2026-04-27 13:35 47.36612 9.38027 29706 ft 468 kts 115°
2026-04-27 13:35 47.35221 9.42371 29997 ft 470 kts 115°
2026-04-27 13:35 47.33825 9.46733 30272 ft 471 kts 115°
2026-04-27 13:35 47.32425 9.51107 30479 ft 473 kts 115°
2026-04-27 13:36 47.31020 9.55501 30710 ft 475 kts 115°
2026-04-27 13:36 47.29629 9.59854 30954 ft 476 kts 115°
2026-04-27 13:36 47.28219 9.64260 31282 ft 475 kts 115°
2026-04-27 13:36 47.26808 9.68649 31630 ft 474 kts 115°
2026-04-27 13:37 47.25397 9.73027 31959 ft 473 kts 115°
2026-04-27 13:37 47.23987 9.77397 32294 ft 472 kts 115°
2026-04-27 13:37 47.22580 9.81756 32614 ft 471 kts 115°
2026-04-27 13:37 47.21153 9.86175 32914 ft 471 kts 115°
2026-04-27 13:38 47.19766 9.90465 33246 ft 470 kts 115°
2026-04-27 13:38 47.18362 9.94802 33596 ft 470 kts 115°
2026-04-27 13:38 47.16956 9.99128 33936 ft 469 kts 115°
2026-04-27 13:38 47.15550 10.03444 34241 ft 468 kts 115°
2026-04-27 13:39 47.14141 10.07754 34490 ft 468 kts 115°
2026-04-27 13:39 47.12731 10.12056 34750 ft 467 kts 115°
2026-04-27 13:39 47.11325 10.16346 35012 ft 467 kts 115°
2026-04-27 13:39 47.09918 10.20639 35207 ft 466 kts 115°
2026-04-27 13:40 47.08511 10.24931 35402 ft 466 kts 115°
2026-04-27 13:40 47.07104 10.29223 35584 ft 467 kts 115°
2026-04-27 13:40 47.05694 10.33510 35790 ft 467 kts 115°
2026-04-27 13:40 47.04282 10.37785 36043 ft 466 kts 115°
2026-04-27 13:41 47.02865 10.42061 36233 ft 466 kts 115°
2026-04-27 13:41 47.01452 10.46330 36426 ft 466 kts 115°
2026-04-27 13:41 47.00035 10.50606 36591 ft 466 kts 115°
2026-04-27 13:41 46.98618 10.54878 36745 ft 467 kts 115°
2026-04-27 13:42 46.97195 10.59152 36922 ft 467 kts 115°
2026-04-27 13:42 46.95771 10.63421 37109 ft 467 kts 115°
2026-04-27 13:42 46.92917 10.71951 37134 ft 466 kts 115°
2026-04-27 13:43 46.90072 10.80446 37130 ft 464 kts 115°
2026-04-27 13:43 46.87227 10.88914 37120 ft 464 kts 115°
2026-04-27 13:44 46.84374 10.97353 37117 ft 463 kts 115°
2026-04-27 13:44 46.81356 11.05655 37123 ft 464 kts 124°
2026-04-27 13:45 46.77157 11.12804 37102 ft 465 kts 133°
2026-04-27 13:45 46.72736 11.19668 37090 ft 463 kts 133°
2026-04-27 13:46 46.68323 11.26532 37061 ft 464 kts 133°
2026-04-27 13:46 46.63906 11.33375 37055 ft 464 kts 133°
2026-04-27 13:47 46.59483 11.40211 37050 ft 464 kts 133°
2026-04-27 13:47 46.55065 11.47025 37047 ft 463 kts 133°
2026-04-27 13:48 46.50646 11.53825 37056 ft 463 kts 133°
2026-04-27 13:48 46.46216 11.60610 37060 ft 462 kts 133°
2026-04-27 13:49 46.41791 11.67372 37073 ft 462 kts 133°
2026-04-27 13:49 46.37354 11.74100 37104 ft 462 kts 134°
2026-04-27 13:50 46.32784 11.80619 37102 ft 461 kts 136°
2026-04-27 13:50 46.28152 11.87037 37106 ft 461 kts 136°
2026-04-27 13:51 46.23544 11.93482 37103 ft 460 kts 135°
2026-04-27 13:51 46.18995 11.99902 37110 ft 461 kts 135°
2026-04-27 13:52 46.14419 12.06356 37123 ft 460 kts 135°
2026-04-27 13:52 46.09846 12.12793 37121 ft 459 kts 135°
2026-04-27 13:53 46.02968 12.22398 37126 ft 459 kts 135°
2026-04-27 13:54 45.98378 12.28783 37125 ft 459 kts 135°
2026-04-27 13:54 45.93791 12.35162 37138 ft 459 kts 135°
2026-04-27 13:55 45.89201 12.41540 37126 ft 459 kts 135°
2026-04-27 13:55 45.84608 12.47904 37122 ft 459 kts 135°
2026-04-27 13:56 45.80010 12.54253 37122 ft 459 kts 136°
2026-04-27 13:56 45.75406 12.60576 37120 ft 458 kts 136°
2026-04-27 13:57 45.70800 12.66894 37127 ft 458 kts 136°
2026-04-27 13:57 45.66199 12.73210 37121 ft 459 kts 136°
2026-04-27 13:58 45.61589 12.79514 37120 ft 459 kts 136°
2026-04-27 13:58 45.56975 12.85804 37123 ft 458 kts 136°
2026-04-27 13:59 45.52360 12.92084 37124 ft 458 kts 136°
2026-04-27 13:59 45.47746 12.98346 37130 ft 458 kts 136°
2026-04-27 14:00 45.43418 13.04988 37121 ft 457 kts 130°
2026-04-27 14:00 45.39239 13.11804 37109 ft 457 kts 130°
2026-04-27 14:01 45.35035 13.18590 37109 ft 457 kts 131°
2026-04-27 14:01 45.30792 13.25327 37123 ft 457 kts 131°
2026-04-27 14:02 45.26606 13.32053 37116 ft 458 kts 130°
2026-04-27 14:02 45.22402 13.38909 37113 ft 458 kts 130°
2026-04-27 14:03 45.18249 13.45679 37113 ft 458 kts 130°
2026-04-27 14:03 45.14188 13.52637 37110 ft 458 kts 128°
2026-04-27 14:04 45.10232 13.59684 37113 ft 457 kts 128°
2026-04-27 14:04 45.06249 13.66712 37113 ft 458 kts 128°
2026-04-27 14:05 45.02230 13.73681 37115 ft 458 kts 129°
2026-04-27 14:05 44.98196 13.80639 37117 ft 458 kts 129°
2026-04-27 14:06 44.94159 13.87594 37132 ft 458 kts 129°
2026-04-27 14:06 44.90155 13.94499 37119 ft 458 kts 128°
2026-04-27 14:07 44.86124 14.01445 37119 ft 458 kts 128°
2026-04-27 14:07 44.82079 14.08373 37117 ft 458 kts 129°
2026-04-27 14:08 44.78028 14.15287 37117 ft 458 kts 129°
2026-04-27 14:08 44.73978 14.22201 37124 ft 458 kts 129°
2026-04-27 14:09 44.69924 14.29112 37121 ft 458 kts 129°
2026-04-27 14:09 44.65855 14.36009 37112 ft 458 kts 129°
2026-04-27 14:10 44.61787 14.42899 37122 ft 458 kts 129°
2026-04-27 14:10 44.57715 14.49774 37129 ft 458 kts 129°
2026-04-27 14:11 44.53641 14.56638 37122 ft 458 kts 129°
2026-04-27 14:11 44.49572 14.63490 37121 ft 457 kts 129°
2026-04-27 14:12 44.45500 14.70325 37119 ft 457 kts 129°
2026-04-27 14:12 44.41422 14.77148 37106 ft 457 kts 129°
2026-04-27 14:13 44.38031 14.82815 37113 ft 457 kts 129°
2026-04-27 14:13 44.33946 14.89627 37117 ft 457 kts 129°
2026-04-27 14:14 44.29856 14.96412 37116 ft 456 kts 129°
2026-04-27 14:14 44.25768 15.03187 37116 ft 456 kts 129°
2026-04-27 14:15 44.21679 15.09953 37119 ft 456 kts 129°
2026-04-27 14:15 44.17593 15.16716 37109 ft 456 kts 129°
2026-04-27 14:16 44.13493 15.23468 37111 ft 456 kts 129°
2026-04-27 14:16 44.09386 15.30206 37112 ft 457 kts 129°
2026-04-27 14:17 44.05270 15.36935 37125 ft 457 kts 129°
2026-04-27 14:17 44.01156 15.43667 37121 ft 457 kts 129°
2026-04-27 14:18 43.97032 15.50398 37124 ft 457 kts 129°
2026-04-27 14:18 43.92905 15.57118 37123 ft 458 kts 129°
2026-04-27 14:19 43.88768 15.63827 37112 ft 458 kts 129°
2026-04-27 14:19 43.84621 15.70534 37112 ft 458 kts 130°
2026-04-27 14:20 43.80473 15.77230 37109 ft 458 kts 130°
2026-04-27 14:20 43.76357 15.83882 37108 ft 458 kts 130°
2026-04-27 14:21 43.72183 15.90613 37106 ft 458 kts 130°
2026-04-27 14:21 43.68049 15.97236 37100 ft 458 kts 130°
2026-04-27 14:22 43.63883 16.03892 37115 ft 458 kts 130°
2026-04-27 14:22 43.59711 16.10549 37104 ft 459 kts 130°
2026-04-27 14:23 43.55541 16.17211 37115 ft 459 kts 130°
2026-04-27 14:23 43.51360 16.23857 37118 ft 459 kts 130°
2026-04-27 14:24 43.47168 16.30496 37117 ft 459 kts 130°
2026-04-27 14:24 43.42977 16.37133 37116 ft 459 kts 130°
2026-04-27 14:25 43.38781 16.43765 37115 ft 460 kts 130°
2026-04-27 14:25 43.34574 16.50396 37104 ft 460 kts 131°
2026-04-27 14:26 43.30354 16.57016 37101 ft 460 kts 131°
2026-04-27 14:26 43.26133 16.63625 37101 ft 460 kts 131°
2026-04-27 14:27 43.21912 16.70233 37114 ft 460 kts 131°
2026-04-27 14:27 43.17687 16.76834 37097 ft 461 kts 131°
2026-04-27 14:28 43.13454 16.83436 37096 ft 461 kts 131°
2026-04-27 14:28 43.09211 16.90028 37095 ft 462 kts 131°
2026-04-27 14:29 43.04962 16.96615 37101 ft 462 kts 131°
2026-04-27 14:29 43.00739 17.03153 37111 ft 462 kts 131°
2026-04-27 14:30 42.96484 17.09723 37114 ft 462 kts 131°
2026-04-27 14:30 42.92214 17.16293 37096 ft 463 kts 132°
2026-04-27 14:31 42.87943 17.22856 37093 ft 463 kts 132°
2026-04-27 14:31 42.83670 17.29411 37093 ft 463 kts 132°
2026-04-27 14:32 42.79380 17.35972 37096 ft 463 kts 132°
2026-04-27 14:32 42.75094 17.42523 37104 ft 463 kts 132°
2026-04-27 14:33 42.70787 17.49062 37101 ft 464 kts 133°
2026-04-27 14:33 42.66473 17.55584 37089 ft 464 kts 133°
2026-04-27 14:34 42.62162 17.62120 37090 ft 465 kts 133°
2026-04-27 14:34 42.57850 17.68665 37092 ft 465 kts 133°
2026-04-27 14:35 42.53531 17.75190 37100 ft 465 kts 133°
2026-04-27 14:35 42.49193 17.81699 37095 ft 465 kts 133°
2026-04-27 14:36 42.44860 17.88205 37094 ft 465 kts 133°
2026-04-27 14:36 42.40523 17.94721 37094 ft 466 kts 133°
2026-04-27 14:37 42.36185 18.01224 37091 ft 466 kts 134°
2026-04-27 14:37 42.31830 18.07708 37093 ft 466 kts 134°
2026-04-27 14:38 42.27475 18.14200 37102 ft 466 kts 134°
2026-04-27 14:38 42.23113 18.20677 37091 ft 466 kts 134°
2026-04-27 14:39 42.18742 18.27141 37096 ft 466 kts 134°
2026-04-27 14:39 42.14368 18.33600 37093 ft 466 kts 134°
2026-04-27 14:40 42.09999 18.40061 37077 ft 467 kts 134°
2026-04-27 14:40 42.05622 18.46511 37087 ft 466 kts 134°
2026-04-27 14:41 42.01166 18.52849 37083 ft 465 kts 141°
2026-04-27 14:41 41.96149 18.58200 37084 ft 463 kts 144°
2026-04-27 14:42 41.91039 18.63486 37089 ft 464 kts 145°
2026-04-27 14:42 41.85934 18.68778 37073 ft 464 kts 144°
2026-04-27 14:43 41.80835 18.74075 37079 ft 464 kts 144°
2026-04-27 14:43 41.75730 18.79348 37087 ft 463 kts 145°
2026-04-27 14:44 41.70618 18.84602 37094 ft 463 kts 145°
2026-04-27 14:44 41.65508 18.89859 37094 ft 463 kts 144°
2026-04-27 14:45 41.60408 18.95098 37087 ft 463 kts 144°
2026-04-27 14:45 41.55296 19.00337 37085 ft 462 kts 145°
2026-04-27 14:46 41.50189 19.05557 37089 ft 462 kts 145°
2026-04-27 14:46 41.44879 19.10310 37090 ft 457 kts 157°
2026-04-27 14:47 41.38980 19.13349 37075 ft 454 kts 163°
2026-04-27 14:47 41.33054 19.16246 37083 ft 454 kts 163°
2026-04-27 14:48 41.27129 19.19145 37085 ft 453 kts 163°
2026-04-27 14:48 41.18246 19.23464 37084 ft 453 kts 163°
2026-04-27 14:49 41.12330 19.26333 37084 ft 453 kts 163°
2026-04-27 14:49 41.06411 19.29206 37083 ft 453 kts 163°
2026-04-27 14:50 41.00493 19.32069 37080 ft 453 kts 163°
2026-04-27 14:50 40.94573 19.34921 37076 ft 453 kts 163°
2026-04-27 14:51 40.88650 19.37771 36868 ft 454 kts 163°
2026-04-27 14:51 40.85649 19.39211 35775 ft 465 kts 163°
2026-04-27 14:51 40.83641 19.40177 35499 ft 461 kts 163°
2026-04-27 14:52 40.79647 19.42100 34879 ft 455 kts 163°
2026-04-27 14:52 40.76685 19.43520 34331 ft 452 kts 163°
2026-04-27 14:52 40.73771 19.44915 33753 ft 450 kts 163°
2026-04-27 14:52 40.70840 19.46314 33208 ft 446 kts 163°
2026-04-27 14:53 40.67930 19.47701 32692 ft 443 kts 163°
2026-04-27 14:53 40.65047 19.49076 32157 ft 440 kts 162°
2026-04-27 14:53 40.62178 19.50447 31642 ft 437 kts 162°
2026-04-27 14:53 40.59333 19.51805 31132 ft 434 kts 162°
2026-04-27 14:54 40.56509 19.53147 30656 ft 430 kts 162°
2026-04-27 14:54 40.53704 19.54480 30175 ft 427 kts 162°
2026-04-27 14:54 40.50925 19.55803 29671 ft 423 kts 162°
2026-04-27 14:54 40.48174 19.57110 29222 ft 417 kts 162°
2026-04-27 14:55 40.45460 19.58398 28790 ft 412 kts 162°
2026-04-27 14:55 40.42777 19.59672 28355 ft 407 kts 162°
2026-04-27 14:55 40.40128 19.60930 27933 ft 403 kts 162°
2026-04-27 14:55 40.37505 19.62171 27501 ft 399 kts 162°
2026-04-27 14:56 40.34910 19.63396 27074 ft 395 kts 162°
2026-04-27 14:56 40.32335 19.64612 26647 ft 391 kts 162°
2026-04-27 14:56 40.29785 19.65814 26224 ft 388 kts 162°
2026-04-27 14:56 40.27255 19.67006 25778 ft 385 kts 162°
2026-04-27 14:57 40.24739 19.68188 25341 ft 383 kts 162°
2026-04-27 14:57 40.22234 19.69362 24887 ft 382 kts 162°
2026-04-27 14:57 40.19739 19.70530 24439 ft 380 kts 162°
2026-04-27 14:57 40.17256 19.71695 23977 ft 379 kts 162°
2026-04-27 14:58 40.14774 19.72855 23505 ft 378 kts 162°
2026-04-27 14:58 40.12297 19.73989 22903 ft 377 kts 166°
2026-04-27 14:58 40.10581 19.74435 22178 ft 383 kts 178°
2026-04-27 14:58 40.07918 19.74184 21414 ft 384 kts 195°
2026-04-27 14:59 40.05351 19.73408 21190 ft 372 kts 195°
2026-04-27 14:59 40.02895 19.72693 20904 ft 354 kts 195°
2026-04-27 14:59 40.00525 19.72010 20339 ft 345 kts 195°
2026-04-27 14:59 39.98195 19.71334 19702 ft 341 kts 195°
2026-04-27 15:00 39.95894 19.70662 19078 ft 337 kts 195°
2026-04-27 15:00 39.93618 19.69992 18461 ft 334 kts 195°
2026-04-27 15:00 39.91364 19.69329 17785 ft 330 kts 195°
2026-04-27 15:00 39.89135 19.68670 17118 ft 327 kts 195°
2026-04-27 15:01 39.86932 19.68019 16485 ft 323 kts 195°
2026-04-27 15:01 39.84749 19.67376 15873 ft 319 kts 195°
2026-04-27 15:01 39.82597 19.66743 15287 ft 316 kts 195°
2026-04-27 15:01 39.80464 19.66117 14700 ft 313 kts 195°
2026-04-27 15:02 39.78351 19.65497 14129 ft 310 kts 194°
2026-04-27 15:02 39.76257 19.64883 13529 ft 307 kts 194°
2026-04-27 15:02 39.74184 19.64272 12920 ft 304 kts 194°
2026-04-27 15:02 39.72127 19.63667 12313 ft 301 kts 193°
2026-04-27 15:03 39.70097 19.63073 11719 ft 297 kts 193°
2026-04-27 15:03 39.68097 19.62487 11154 ft 293 kts 193°
2026-04-27 15:03 39.66121 19.61905 10756 ft 290 kts 192°
2026-04-27 15:03 39.64144 19.61324 10514 ft 292 kts 192°
2026-04-27 15:04 39.62159 19.60743 10271 ft 292 kts 192°
2026-04-27 15:04 39.60173 19.60161 10037 ft 292 kts 192°
2026-04-27 15:04 39.58187 19.59812 9897 ft 288 kts 179°
2026-04-27 15:04 39.56224 19.60112 9627 ft 282 kts 165°
2026-04-27 15:05 39.54416 19.61032 9271 ft 279 kts 150°
2026-04-27 15:05 39.52788 19.62379 8895 ft 277 kts 147°
2026-04-27 15:05 39.51174 19.63744 8507 ft 276 kts 147°
2026-04-27 15:05 39.49566 19.65098 8117 ft 275 kts 147°
2026-04-27 15:06 39.47961 19.66448 7723 ft 275 kts 147°
2026-04-27 15:06 39.46358 19.67793 7336 ft 274 kts 147°
2026-04-27 15:06 39.44756 19.69131 6919 ft 274 kts 148°
2026-04-27 15:06 39.43154 19.70465 6518 ft 274 kts 148°
2026-04-27 15:07 39.41607 19.71898 6089 ft 274 kts 137°
2026-04-27 15:07 39.40449 19.73852 5661 ft 276 kts 118°
2026-04-27 15:07 39.39845 19.76204 5214 ft 278 kts 99°
2026-04-27 15:07 39.39802 19.78701 4787 ft 279 kts 89°
2026-04-27 15:08 39.39843 19.81189 4404 ft 276 kts 91°
2026-04-27 15:08 39.39875 19.83626 4195 ft 266 kts 91°
2026-04-27 15:08 39.39905 19.85897 4059 ft 246 kts 91°
2026-04-27 15:08 39.40055 19.88009 3942 ft 229 kts 79°
2026-04-27 15:09 39.40479 19.89922 3844 ft 214 kts 76°
2026-04-27 15:09 39.40892 19.91734 3774 ft 204 kts 76°
2026-04-27 15:09 39.41281 19.93443 3671 ft 192 kts 76°
2026-04-27 15:09 39.41647 19.95051 3564 ft 181 kts 76°
2026-04-27 15:10 39.42193 19.96438 3493 ft 172 kts 47°
2026-04-27 15:10 39.43253 19.97194 3360 ft 180 kts
2026-04-27 15:10 39.44476 19.97016 3078 ft 177 kts 342°
2026-04-27 15:10 39.45658 19.96564 2835 ft 177 kts 342°
2026-04-27 15:11 39.46834 19.96120 2577 ft 176 kts 342°
2026-04-27 15:11 39.48002 19.95681 2329 ft 174 kts 342°
2026-04-27 15:11 39.49158 19.95248 2088 ft 172 kts 342°
2026-04-27 15:11 39.50295 19.94821 1847 ft 169 kts 343°
2026-04-27 15:12 39.51412 19.94402 1615 ft 166 kts 343°
2026-04-27 15:12 39.52512 19.93987 1392 ft 165 kts 343°
2026-04-27 15:12 39.53573 19.93590 1191 ft 151 kts 341°
2026-04-27 15:12 39.54552 19.93211 989 ft 144 kts 340°
2026-04-27 15:13 39.55479 19.92737 814 ft 143 kts 334°
2026-04-27 15:13 39.56403 19.92274 665 ft 143 kts 340°
2026-04-27 15:13 39.57367 19.91940 458 ft 144 kts 348°
2026-04-27 15:13 39.58355 19.91685 226 ft 146 kts 349°
2026-04-27 15:14 39.59348 19.91432 45 ft 145 kts 349°
2026-04-27 15:14 39.60254 19.91196 11 ft 105 kts 348°
2026-04-27 15:14 39.60752 19.91068 9 ft 59 kts 349°
2026-04-27 15:14 39.60981 19.91008 8 ft 14 kts 353°
2026-04-27 15:15 39.61045 19.91055 9 ft 10 kts 57°
2026-04-27 15:15 39.61034 19.91124 10 ft 8 kts 144°
2026-04-27 15:15 39.60987 19.91135 8 ft 6 kts 164°
2026-04-27 15:15 39.60949 19.91149 8 ft 5 kts 164°
2026-04-27 15:16 39.60920 19.91160 8 ft 4 kts 164°
2026-04-27 15:16 39.60899 19.91174 9 ft 3 kts 144°
2026-04-27 15:16 39.60889 19.91189 8 ft 2 kts 128°
2026-04-27 15:16 39.60858 19.91227 8 ft 9 kts 150°
2026-04-27 15:17 39.60801 19.91246 9 ft 8 kts 168°
2026-04-27 15:17 39.60771 19.91280 8 ft 5 kts 94°
2026-04-27 15:17 39.60777 19.91320 8 ft 4 kts 77°
2026-04-27 15:17 39.60779 19.91332 8 ft 0 kts 77°